Location: Casteau
(50.5142°N, 4.0161°E)
Time: 04:31:58
(UTC+00:00)

NOSS 3-2 (C) - Pass Details

Date: 18 September 2020
Orbit: 795 x 1418 km, 63.4° (Epoch: 25 October)

Event Time Altitude Azimuth Distance (km) Brightness Sun altitude
Rises 20:33:17 0° 315° (NW) 3,944 8.0 -24.9°
Reaches altitude 10° 20:35:51 10° 312° (NW) 3,067 7.1 -25.2°
Maximum altitude 20:43:11 62° 235° (SW) 1,426 4.3 -26.1°
Enters shadow 20:46:12 40° 174° (S) 1,856 4.6 -26.5°
